User: anonymous   Login
Location: Dayton
(39.7590°N, 84.1920°W)
Time: 13:34:40
(UTC-05:00)
Language:

Cosmos 1939 Rocket - Orbit

View from above orbital plane
View from above orbital plane
View from above satellite
View from above satellite

Ground track
Ground track

The orbit data is extracted from the following two-line orbital elements,

1 19046U 88032B   18019.93519616 +.00000882 +00000-0 +70256-4 0  9992
2 19046 097.5011 065.2371 0037259 315.6761 044.1482 15.02368443604890
Epoch (UTC): 19 January 2018 22:26:40
Eccentricity: 0.0037259
inclination: 97.5011°
perigee height: 534 km
apogee height: 585 km
right ascension of ascending node: 65.2371°
argument of perigee: 315.6761°
revolutions per day: 15.02368443
mean anomaly at epoch: 44.1482°
orbit number at epoch: 60489

The dashed part of the orbit path shows where the satellite is in the earth's shadow,  

DLR